Weather History for Mount Pleasant, IA

Change the Weather History Date:

Thursday, May 2, 2013

  Actual Average Record
Temperature  
Mean Temperature 47 °F -  
Max Temperature 53 °F 68 °F 88 °F (1968)
Min Temperature 40 °F 45 °F 31 °F (1961)
Degree Days  
Heating Degree Days 18    
Moisture  
Dew Point 37 °F    
Average Humidity 66    
Maximum Humidity 81    
Minimum Humidity 53    
Precipitation  
Precipitation 0.09 in - - ()
Sea Level Pressure  
Sea Level Pressure 30.23 in    
Wind  
Wind Speed 16 mph (NNW)    
Max Wind Speed 23 mph    
Max Gust Speed 30 mph    
Visibility 8 miles    
Events Rain    
Averages and records for this station are not official NWS values.
T = Trace of Precipitation, MM = Missing Value Source: NWS Daily Summary

Daily Weather History Graph

Daily Weather History Graph

Search for Another Location

Airport:

Trip Planner

Search our weather history database for the weather conditions in past years. The results will help you decide how hot, cold, wet, or windy it might be!

Date:

Astronomy

May. 02, 2013 Rise Set
Actual Time 6:02 AM CDT 8:04 PM CDT
Civil Twilight 5:32 AM CDT 8:34 PM CDT
Nautical Twilight 4:56 AM CDT 9:10 PM CDT
Astronomical Twilight 4:16 AM CDT 9:50 PM CDT
Moon 1:53 AM CDT (5/2) 12:50 PM CDT (5/2)
Length of Visible Light 15h 01m
Length of Day
14h 01m
Waning Gibbous, 47% of the Moon is Illuminated
May 2
Waning Gibbous
May 9
New
May 17
First Quarter
May 24
Full
May 31
Last Quarter

Hourly Weather History & Observations

Time (CDT) Temp. Windchill Dew Point Humidity Pressure Visibility Wind Dir Wind Speed Gust Speed Precip Events Conditions
12:15 AM 54.0 °F - 41.0 °F 62% 30.16 in 10.0 mi NNW 13.8 mph - N/A   Clear
12:35 AM 53.6 °F - 40.5 °F 61% 30.16 in 10.0 mi NNW 11.5 mph - N/A   Scattered Clouds
12:55 AM 53.1 °F - 40.5 °F 62% 30.16 in 10.0 mi NNW 12.7 mph - N/A   Clear
1:15 AM 52.7 °F - 40.5 °F 63% 30.15 in 10.0 mi NNW 11.5 mph - N/A   Scattered Clouds
1:35 AM 52.2 °F - 40.3 °F 64% 30.15 in 10.0 mi NNW 15.0 mph - N/A   Clear
1:55 AM 52.2 °F - 40.1 °F 64% 30.15 in 10.0 mi NNW 10.4 mph - N/A   Clear
2:15 AM 51.8 °F - 39.9 °F 64% 30.15 in 10.0 mi North 13.8 mph - N/A   Clear
2:35 AM 51.8 °F - 39.4 °F 63% 30.15 in 10.0 mi North 18.4 mph 23.0 mph N/A   Scattered Clouds
2:55 AM 51.3 °F - 38.3 °F 61% 30.16 in 10.0 mi North 16.1 mph 24.2 mph N/A   Mostly Cloudy
3:15 AM 50.9 °F - 37.6 °F 60% 30.16 in 10.0 mi NNW 18.4 mph 21.9 mph N/A   Scattered Clouds
3:35 AM 50.9 °F - 37.6 °F 60% 30.17 in 10.0 mi NNW 17.3 mph 20.7 mph N/A   Scattered Clouds
3:55 AM 50.7 °F - 37.2 °F 60% 30.17 in 10.0 mi NNW 18.4 mph 23.0 mph N/A   Mostly Cloudy
4:15 AM 50.2 °F - 36.5 °F 59% 30.18 in 10.0 mi NNW 16.1 mph - N/A   Scattered Clouds
4:35 AM 50.0 °F - 36.7 °F 60% 30.17 in 10.0 mi North 18.4 mph 24.2 mph N/A   Clear
4:55 AM 49.6 °F - 36.7 °F 61% 30.19 in 10.0 mi NNW 13.8 mph 17.3 mph N/A   Clear
5:15 AM 49.5 °F - 36.0 °F 60% 30.20 in 10.0 mi NNW 17.3 mph 23.0 mph N/A   Scattered Clouds
5:35 AM 49.1 °F - 36.1 °F 61% 30.20 in 10.0 mi NNW 18.4 mph 25.3 mph N/A   Scattered Clouds
5:55 AM 49.1 °F - 36.5 °F 62% 30.20 in 10.0 mi NNW 18.4 mph 21.9 mph N/A   Mostly Cloudy
6:15 AM 48.6 °F - 36.5 °F 63% 30.21 in 10.0 mi NNW 19.6 mph 26.5 mph N/A   Mostly Cloudy
6:35 AM 49.1 °F - 36.3 °F 61% 30.22 in 10.0 mi NNW 17.3 mph 24.2 mph N/A   Mostly Cloudy
6:55 AM 49.8 °F - 36.1 °F 59% 30.22 in 10.0 mi North 17.3 mph 24.2 mph N/A   Overcast
7:15 AM 50.0 °F - 36.7 °F 60% 30.24 in 10.0 mi NNW 13.8 mph - N/A   Mostly Cloudy
7:35 AM 49.6 °F - 36.9 °F 61% 30.25 in 10.0 mi NNW 11.5 mph - N/A   Overcast
7:55 AM 49.5 °F - 36.7 °F 61% 30.27 in 10.0 mi North 17.3 mph 21.9 mph N/A   Overcast
8:15 AM 50.2 °F - 36.9 °F 60% 30.26 in 10.0 mi NNW 15.0 mph 21.9 mph N/A   Overcast
8:35 AM 51.1 °F - 35.8 °F 56% 30.25 in 10.0 mi North 18.4 mph 23.0 mph N/A   Overcast
8:55 AM 51.1 °F - 35.1 °F 54% 30.24 in 10.0 mi North 21.9 mph 26.5 mph N/A   Overcast
9:15 AM 51.1 °F - 35.4 °F 55% 30.26 in 10.0 mi North 15.0 mph 25.3 mph N/A   Overcast
9:35 AM 50.2 °F - 35.6 °F 57% 30.25 in 10.0 mi North 20.7 mph - N/A   Overcast
9:55 AM 50.5 °F - 35.2 °F 56% 30.25 in 10.0 mi North 19.6 mph 23.0 mph N/A   Overcast
10:15 AM 51.1 °F - 35.8 °F 56% 30.25 in 10.0 mi North 19.6 mph 25.3 mph N/A   Overcast
10:35 AM 52.2 °F - 35.8 °F 54% 30.25 in 10.0 mi North 18.4 mph - N/A   Overcast
10:55 AM 50.9 °F - 35.1 °F 55% 30.26 in 10.0 mi North 17.3 mph - N/A   Overcast
11:15 AM 51.1 °F - 35.8 °F 56% 30.27 in 10.0 mi North 15.0 mph - N/A   Overcast
11:35 AM 51.8 °F - 35.4 °F 54% 30.26 in 10.0 mi North 20.7 mph - N/A   Overcast
11:55 AM 52.5 °F - 35.6 °F 53% 30.27 in 10.0 mi NNW 17.3 mph 25.3 mph N/A   Overcast
12:15 PM 51.8 °F - 36.0 °F 55% 30.26 in 10.0 mi NNW 18.4 mph - N/A   Overcast
12:35 PM 51.8 °F - 37.0 °F 57% 30.26 in 10.0 mi NNW 18.4 mph 24.2 mph N/A   Overcast
12:55 PM 49.8 °F - 36.1 °F 59% 30.27 in 10.0 mi NW 17.3 mph 23.0 mph N/A   Overcast
1:15 PM 49.6 °F - 36.3 °F 60% 30.27 in 10.0 mi NNW 19.6 mph 24.2 mph N/A   Overcast
1:35 PM 49.1 °F - 36.3 °F 61% 30.27 in 10.0 mi NNW 18.4 mph 25.3 mph N/A   Overcast
1:55 PM 48.9 °F - 36.1 °F 61% 30.27 in 10.0 mi NW 16.1 mph 25.3 mph N/A   Overcast
2:15 PM 49.1 °F - 36.0 °F 61% 30.27 in 10.0 mi NNW 20.7 mph 26.5 mph N/A   Overcast
2:35 PM 47.7 °F - 37.0 °F 67% 30.26 in 7.0 mi NW 18.4 mph 24.2 mph N/A   Overcast
2:55 PM 47.1 °F - 37.0 °F 68% 30.26 in 5.0 mi NNW 23.0 mph 26.5 mph N/A   Haze
3:15 PM 46.6 °F - 36.5 °F 68% 30.26 in 7.0 mi NNW 19.6 mph 28.8 mph N/A   Overcast
3:35 PM 46.0 °F 37.8 °F 35.8 °F 67% 30.25 in 7.0 mi NNW 23.0 mph 29.9 mph N/A   Overcast
3:55 PM 45.9 °F 37.6 °F 35.8 °F 68% 30.25 in 7.0 mi NNW 23.0 mph 28.8 mph N/A   Overcast
4:15 PM 45.5 °F 37.6 °F 36.0 °F 69% 30.25 in 5.0 mi North 20.7 mph 27.6 mph N/A   Haze
4:35 PM 44.8 °F 37.4 °F 35.6 °F 70% 30.25 in 5.0 mi NNW 17.3 mph 26.5 mph N/A   Haze
4:55 PM 44.8 °F 37.4 °F 35.8 °F 71% 30.25 in 7.0 mi NNW 17.3 mph - N/A   Light Drizzle
5:15 PM 43.9 °F 35.4 °F 36.0 °F 74% 30.25 in 4.0 mi NNW 20.7 mph 25.3 mph N/A Rain Rain
5:35 PM 43.9 °F 35.9 °F 36.5 °F 75% 30.23 in 5.0 mi NNW 18.4 mph 25.3 mph N/A Rain Light Rain
5:55 PM 43.7 °F 35.7 °F 36.7 °F 76% 30.24 in 5.0 mi North 18.4 mph 23.0 mph N/A   Light Drizzle
6:15 PM 43.5 °F 35.5 °F 36.9 °F 77% 30.23 in 5.0 mi NNW 18.4 mph 23.0 mph N/A   Drizzle
6:35 PM 43.3 °F 35.2 °F 37.0 °F 78% 30.24 in 5.0 mi NNW 18.4 mph 24.2 mph N/A Rain Light Rain
6:55 PM 43.0 °F 35.1 °F 36.7 °F 78% 30.24 in 4.0 mi NNW 17.3 mph 24.2 mph N/A   Drizzle
7:15 PM 42.6 °F 34.0 °F 36.5 °F 79% 30.24 in 2.5 mi NNW 19.6 mph 25.3 mph N/A Rain Light Rain
7:35 PM 42.1 °F 34.5 °F 36.1 °F 79% 30.25 in 5.0 mi NNW 15.0 mph 25.3 mph 0.01 in Rain Light Rain
7:55 PM 41.9 °F 33.7 °F 35.8 °F 79% 30.24 in 5.0 mi NNW 17.3 mph - 0.01 in Rain Light Rain
8:15 PM 41.9 °F 33.4 °F 35.6 °F 78% 30.24 in 7.0 mi NNW 18.4 mph 26.5 mph N/A Rain Light Rain
8:35 PM 41.5 °F 32.4 °F 35.2 °F 78% 30.23 in 7.0 mi NNW 20.7 mph 24.2 mph N/A Rain Light Rain
8:55 PM 41.4 °F 33.0 °F 35.2 °F 79% 30.24 in 10.0 mi NNW 17.3 mph - N/A   Light Drizzle
9:15 PM 41.5 °F 33.5 °F 35.6 °F 79% 30.25 in 10.0 mi NNW 16.1 mph - N/A Rain Rain
9:35 PM 41.4 °F 33.6 °F 35.1 °F 78% 30.25 in 10.0 mi NNW 15.0 mph 23.0 mph N/A Rain Light Rain
9:55 PM 41.4 °F 33.6 °F 35.2 °F 79% 30.26 in 7.0 mi NNW 15.0 mph 20.7 mph N/A   Overcast
10:15 PM 41.2 °F 33.7 °F 35.2 °F 79% 30.24 in 2.5 mi NNW 13.8 mph - N/A Rain Rain
10:35 PM 41.0 °F 32.2 °F 35.6 °F 81% 30.23 in 3.0 mi North 18.4 mph - N/A Rain Rain
10:55 PM 41.0 °F 33.1 °F 35.6 °F 81% 30.23 in 4.0 mi NNW 15.0 mph - 0.02 in Rain Light Rain
11:15 PM 41.0 °F 33.1 °F 35.6 °F 81% 30.23 in 3.0 mi NNW 15.0 mph - 0.02 in Rain Rain
11:35 PM 40.6 °F 33.0 °F 35.2 °F 81% 30.21 in 2.5 mi NNW 13.8 mph - 0.05 in Rain Rain
11:55 PM 40.6 °F 32.3 °F 35.1 °F 80% 30.20 in 5.0 mi NNW 16.1 mph - 0.06 in Rain Light Rain